Hourly Data Report for November 04, 2019

All times are specified in Local Standard Time (LST). Add 1 hour to adjust for Daylight Saving Time where and when it is observed.

WOODSTOCK NEWBRIDGE
NEW BRUNSWICK
Current Station Operator: ECCC - MSC

46°09'08.000" N
67°32'34.000" W
154.00 m
8105603
71606
EWD

Download Data

Hourly Data (November 2019)
Hourly Data Report for November 4, 2019
TIME Temp Definition
°C
Dew Point Definition
°C
Rel Hum Definition
%
Wind Dir Definition
10's deg

Wind Spd Definition
km/h
Visibility Definition
km
Stn Press Definition
kPa
Hmdx Definition


Wind Chill Definition


Weather Definition


00:00 -1.9 -2.8 94 20 6   99.98   -4 LegendNANA
01:00 -1.6 -2.8 92 20 3   100.05   -3 LegendNANA
02:00 -1.7 -3.3 88 20 4   100.09   -3 LegendNANA
03:00 -2.5 -3.6 92 20 4   100.15   -4 LegendNANA
04:00 -3.6 -4.4 94 15 2   100.23   -4 LegendNANA
05:00 -3.6 -4.4 95 18 3   100.30   -5 LegendNANA
06:00 -3.9 -4.8 93 14 2   100.36   -5 LegendNANA
07:00 -3.5 -4.5 93 16 4   100.44   -5 LegendNANA
08:00 -1.0 -1.8 94 17 5   LegendMM   -3 LegendNANA
09:00 1.6 -0.9 83 22 6   100.62     LegendNANA
10:00 4.3 -1.7 65 25 11   100.64     LegendNANA
11:00 5.8 -4.1 49 26 10   100.68     LegendNANA
12:00 6.6 -5.1 43 26 14   100.68     LegendNANA
13:00 7.9 -5.1 39 26 12   100.67     LegendNANA
14:00 7.6 -4.9 41 22 7   100.67     LegendNANA
15:00 6.7 -5.0 43 23 8   100.69     LegendNANA
16:00 6.1 -4.7 46 23 5   100.72     LegendNANA
17:00 5.7 -4.2 49 24 4   100.77     LegendNANA
18:00 1.2 -4.0 69   0   100.80     LegendNANA
19:00 -0.4 -3.6 79 13 1   100.83   -1 LegendNANA
20:00 -1.3 -3.6 84 11 2   100.84   -2 LegendNANA
21:00 -0.9 -3.0 86 0 1   100.85   -1 LegendNANA
22:00 1.3 -2.9 73 14 4   100.85     LegendNANA
23:00 2.7 -3.2 65 13 7   100.83     LegendNANA

Notes on Data Quality.

Legend

  • E = Estimated
  • M = Missing
  • NA = Not Available
Date modified: